Regional Weather Roundup
Issued by NWS Columbia, SC

Home | Current Version | Previous Version | Text Only | Print | Product List | Glossary On
Versions: 1 2 3 4 5 6 7 8 9 10 11 12 13 14 15 16 17 18 19 20 21 22 23 24 25 26
000
ASUS42 KCAE 261410
RWRCAE
REGIONAL WEATHER ROUNDUP
NATIONAL WEATHER SERVICE COLUMBIA SC
1000 AM EDT THU MAY 26 2016

NOTE: "FAIR" INDICATES FEW OR NO CLOUDS BELOW 12,000 FEET WITH NO
SIGNIFICANT WEATHER AND/OR OBSTRUCTIONS TO VISIBILITY.

NOT ALL STATIONS ARE QUALITY CONTROLLED BY THE NATIONAL
WEATHER SERVICE. USE DATA WITH CAUTION...ESPECIALLY
DEWPOINT OBSERVATIONS.

SCZ001>056-GAZ040-063>065-077-261500-
...UPSTATE SOUTH CAROLINA...

CITY           SKY/WX    TMP DP  RH WIND       PRES   REMARKS
ANDERSON       MOSUNNY   76  61  59 SW7       30.19F
LIBERTY        SUNNY     74  61  65 SW5       30.19F
SPARTANBURG    MOSUNNY   73  61  64 SW6       30.19F
CLEMSON        PTSUNNY   77  63  61 CALM      30.20F
GREENVILLE     CLOUDY    77  57  50 SW7       30.20F
GREENWOOD      SUNNY     77  58  51 SW10      30.21F
GREER          CLOUDY    77  61  57 SW7       30.19F
ROCK HILL      SUNNY     76  61  59 SW9       30.21F
CHESTER        SUNNY     73  59  60 S5        30.21F
LAURENS        SUNNY     73  61  64 SW7       30.20F


...CENTRAL SOUTH CAROLINA...

CITY           SKY/WX    TMP DP  RH WIND       PRES   REMARKS
COLUMBIA APT   MOSUNNY   79  61  53 S6        30.19F
COLUMBIA OWENS PTSUNNY   79  62  56 SW5       30.21F
MCENTIRE ANGB  MOSUNNY   78  63  59 SW9       30.21S
ORANGEBURG     SUNNY     78  66  66 W9        30.22F
SUMTER SHAW    SUNNY     77  65  65 SW9       30.19S
NEWBERRY       SUNNY     77  61  57 SW7       30.23F
AIKEN          FAIR      77  59  53 SW9       30.24F
BARNWELL       FAIR      81  68  65 SW6       30.22F
MANNING        FAIR      77  66  69 SW10      30.22S
LANCASTER      SUNNY     73  63  68 SW8       30.22S
WINNSBORO      SUNNY     77  61  57 SW6       30.21F


...EASTERN AND COASTAL SOUTH CAROLINA...

CITY           SKY/WX    TMP DP  RH WIND       PRES   REMARKS
MYRTLE BEACH   SUNNY     81  61  50 SW12      30.23F
N MYRTLE BCH   MOSUNNY   79  64  60 SW13      30.21F
CONWAY         FAIR      77  66  69 SW6       30.22F HAZE
MARION         FAIR      77  68  73 SW6       30.21F
HARTSVILLE     FAIR      77  61  57 W7        30.21R
DARLINGTON     MOSUNNY   76  65  68 SW12      30.21S
CHARLESTON APT MOSUNNY   81  63  54 VRB7      30.21F
MOUNT PLEASANT FAIR      81  64  57 S5        30.22S
WALTERBORO     MOSUNNY   79  68  69 W9        30.23S
BEAUFORT       CLOUDY    82  63  52 VRB6      30.22S


...EASTERN GEORGIA...

CITY           SKY/WX    TMP DP  RH WIND       PRES   REMARKS
AUGUSTA BUSH F SUNNY     78  61  55 SW8       30.20S
AUGUSTA DANIEL SUNNY     79  60  52 SW8       30.21F
THOMSON        SUNNY     79  66  64 SW5       30.24F
WASHINGTON     FAIR      75  64  69 CALM      30.20F
CLAXTON        FAIR      79  69  71 SW3       30.21F
SYLVANIA       SUNNY     80  69  69 S3        30.22F
STATESBORO     SUNNY     78  69  74 SW9       30.22S
SAVANNAH       MOSUNNY   79  67  66 SW6       30.22F


...SOUTHERN NORTH CAROLINA...

CITY           SKY/WX    TMP DP  RH WIND       PRES   REMARKS
CHARLOTTE      MOSUNNY   75  61  61 S6        30.20F
WADESBORO      MOSUNNY   76  58  53 SW5       30.19F
ROCKINGHAM     SUNNY     76  61  59 W8        30.20F
RUTHERFORDTON  CLOUDY    71  63  75 CALM      30.21S
ASHEVILLE      CLOUDY    70  57  63 VRB3      30.25F

$$




USA.gov is the U.S. government's official web portal to all federal, state and local government web resources and services.